Tracking 31027 objects as of 19-Jul-2025
HD Live streaming from Space Station
objects crossing your sky now

COSMOS 2251 DEB

Track COSMOS 2251 DEB now!
10-day predictions


NORAD ID: 36622
Int'l Code: 1993-036BEL
Perigee: 603.7 km
Apogee: 704.2 km
Inclination: 74.0 °
Period: 97.7 minutes
Semi major axis: 7024 km
RCS: 0.0002 m2 (small)
Launch date: June 16, 1993
Source: Commonwealth of Independent States (former USSR) (CIS)
Launch site: PLESETSK MISSILE AND SPACE COMPLEX (PKMTR)

Note: This is SATELLITE DEBRIS
Your satellite tracking list
SL-8 R/B
Track 1 satellite(s)




NASA's NSSDC Master Catalog

Two Line Element Set (TLE):
1 36622U 93036BEL 25198.99914798  .00001885  00000-0  27742-3 0  9998
2 36622  74.0146  74.7114 0071515 246.8003 112.5628 14.74473944645714
Source of the keplerian elements: AFSPC